カタログに戻る

SL-3 DEB

運用中PO
NORAD 8039·DEBRIS·🇷🇺 Russia

打ち上げ Jul 11, 1975 から Plesetsk Cosmodrome

Loading…

次のパス (今後24時間)

TLE

最新Source: Space-Track

元期: Sep 14, 2026, 13:32 UTC

1 08039U 75064C   26257.56417866  .00000210  00000-0  11349-3 0  9991
2 08039  81.3010 345.7294 0020423 310.1464  49.7917 14.09332616630279

AllMySatでSL-3 DEBをリアルタイム追跡

Download on the App Store